TIME,DELAY(SENSOR),PRES,OXYGEN,RAWTEMP,T(OPTODE),TCPHASE,FLUOR,BETA(BETA700),BETA(BETA412),BETA(BETA440),CDOM,C(CSC),ED(ED412.40),ED(ED444.00),ED(ED489.70),ED(ED554.30),LU(LU411.80),LU(LU443.40),LU(LU489.60),LU(LU554.10),COMP,TILTX,TILTY,CHECK
1379735415,5812,873.9600219726562000,46.3872718811035160,662.8366699218750000,4.5345401763916020,54.0892410278320300,52,100,87,79,78,15275,2147753746,2147424237,2148014838,2147875492,2147637824,2147054994,2148256585,2147197906,572,4,13,41060
1379739012,5807,941.9600219726562000,49.8784599304199200,670.2564086914062000,4.2897281646728520,53.6923789978027340,52,99,85,79,80,15275,2147755254,2147426459,2148013632,2147874560,2147641243,2147053248,2148264219,2147201389,2531,3,13,24764
1379742612,5810,954.9400024414062000,49.8903007507324200,671.5150146484375000,4.2481398582458500,53.7013587951660160,52,98,82,78,78,15275,2147757403,2147426752,2148015076,2147875584,2147640694,2147053312,2148262893,2147196955,581,4,13,43320
1379746212,5809,980.6900024414062000,51.5603599548339840,675.7191772460938000,4.1090850830078125,53.5278892517089840,52,97,83,79,78,15276,2147756882,2147423049,2148013120,2147873600,2147639826,2147049874,2148259428,2147199104,3587,4,13,64457
1379749812,5810,991.6799926757812000,51.4234504699707000,675.2166137695312000,4.1257171630859375,53.5377807617187500,52,98,85,78,79,15274,2147755136,2147424347,2148015862,2147875318,2147642916,2147054198,2148265728,2147201142,436,4,13,32156
1379753412,5808,987.2500000000000000,51.0581092834472660,675.3485717773438000,4.1213507652282715,53.5934906005859400,53,97,83,79,79,15276,2147756278,2147425856,2148014372,2147874102,2147644370,2147051355,2148262985,2147196553,3177,4,13,21445
1379757012,5809,1002.8900146484375000,51.1162605285644500,675.6854248046875000,4.1102027893066410,53.5874786376953100,52,99,85,78,78,15271,2147753179,2147424713,2148011776,2147872585,2147641746,2147053385,2148262070,2147196562,191,4,13,11869
1379760612,5807,1003.7000122070312000,51.0925788879394500,674.9387817382812000,4.1349120140075680,53.5817489624023440,53,100,86,79,79,15274,2147756425,2147421906,2148012562,2147874294,2147644013,2147057810,2148260845,2147200557,768,4,13,54981
1379764212,5811,1003.0100097656250000,51.0544395446777340,675.7426757812500000,4.1083068847656250,53.6007804870605500,51,97,88,78,80,15273,2147753682,2147424996,2148011675,2147873225,2147643401,2147050925,2148262820,2147201344,98,4,13,26326
1379767812,5809,991.9400024414062000,51.0598297119140600,676.9641113281250000,4.0678691864013670,53.6113090515136700,52,99,86,78,78,15273,2147752859,2147424484,2148016219,2147874633,2147642386,2147053741,2148261540,2147197065,507,4,13,47516
1379771412,5807,997.5399780273438000,51.5469093322753900,677.3035888671875000,4.0566267967224120,53.5511894226074200,52,96,84,77,80,15272,2147754614,2147422198,2148010761,2147872365,2147642505,2147058825,2148261531,2147201572,196,4,13,43908
1379775012,5810,1002.6699829101562000,51.3556594848632800,677.1395263671875000,4.0620632171630860,53.5723304748535160,52,99,84,77,78,15272,2147752018,2147427867,2148014125,2147874998,2147640411,2147056539,2148259437,2147198774,583,4,13,12196
1379778612,5810,1004.9099731445312000,51.0914192199707000,676.7236938476562000,4.0758318901062010,53.6055603027343750,53,97,86,78,80,15273,2147759222,2147426404,2148015268,2147872941,2147640219,2147050230,2148266185,2147196864,63,4,13,58951
1379782212,5804,1002.5999755859375000,50.6313285827636700,675.8159790039062000,4.1058788299560550,53.6598396301269500,53,116,84,78,79,15272,2147754294,2147425709,2148016109,2147873682,2147638573,2147058752,2148266139,2147201956,15,4,13,51691
1379785812,5809,995.4799804687500000,50.9032707214355500,676.8956298828125000,4.0701408386230470,53.6341781616210940,52,98,85,139,79,15270,2147754057,2147428379,2148015963,2147874560,2147640841,2147054354,2148262189,2147195995,257,4,13,52348
1379789412,5807,1001.3599853515625000,51.1577682495117200,677.7385864257812000,4.0422191619873050,53.6073493957519500,53,96,83,80,78,15271,2147755465,2147427273,2148016603,2147873353,2147642532,2147054025,2148263899,2147198838,188,4,13,44676
1379793012,5806,1007.5499877929688000,51.1253089904785160,676.0770263671875000,4.0972418785095215,53.5926017761230500,52,97,84,79,78,15272,2147754011,2147423058,2148014774,2147876745,2147639460,2147051648,2148263817,2147197348,149,3,13,46118
1379796612,5811,1011.7700195312500000,50.7673683166503900,675.0164794921875000,4.1323409080505370,53.6316184997558600,52,98,87,78,79,15211,2147754322,2147427090,2148015972,2147872704,2147642075,2147057892,2148259977,2147195958,3447,4,13,12658
1379800212,5808,1013.7299804687500000,49.8458404541015600,674.9611816406250000,4.1341710090637210,53.7526893615722660,52,98,85,78,80,15272,2147750976,2147425554,2148013248,2147875108,2147639451,2147054226,2148267620,2147198765,145,4,13,55112
1379803812,5808,1005.5399780273438000,50.4297790527343750,676.1478271484375000,4.0948958396911620,53.6915702819824200,53,98,84,78,79,15273,2147755017,2147426450,2148015506,2147872969,2147640073,2147053184,2148260918,2147199963,3563,4,13,10653
1379807412,5809,1008.1900024414062000,50.7981796264648440,677.0609130859375000,4.0646648406982420,53.6533393859863300,53,99,88,79,79,15269,2147756818,2147425289,2148011913,2147876251,2147641609,2147062665,2148264018,2147200932,153,4,13,25205
1379811012,5810,1003.0499877929688000,50.5241813659668000,677.0632934570312000,4.0645871162414550,53.6875801086425800,52,97,84,79,79,15268,2147752530,2147428114,2148015195,2147875657,2147640731,2147055533,2148261531,2147200795,3247,4,13,41194
1379814612,5810,999.8200073242188000,51.4887886047363300,678.2910766601562000,4.0239181518554690,53.5733184814453100,52,96,85,78,78,15266,2147755172,2147426477,2148013732,2147873600,2147643382,2147055561,2148259008,2147198235,10,4,13,42654
1379818212,5811,998.8599853515625000,50.9372100830078100,678.3048706054688000,4.0234618186950680,53.6444892883300800,53,96,85,78,78,15265,2147756955,2147425654,2148014518,2147874697,2147642240,2147055798,2148260598,2147202779,56,4,13,14788
1379821812,5807,992.6099853515625000,51.2804183959960940,678.5241699218750000,4.0161948204040530,53.6061592102050800,52,97,87,78,78,15265,2147757622,2147425362,2148016960,2147873234,2147640640,2147060726,2148262582,2147199798,115,4,13,41044
1379825412,5808,996.5800170898438000,50.9571113586425800,678.2020874023438000,4.0268669128417970,53.6428909301757800,52,98,84,77,80,15264,2147755309,2147423597,2148016356,2147873883,2147641984,2147053056,2148257874,2147198244,3501,4,13,34668
1379829012,5808,1009.4000244140625000,51.0044212341308600,677.5045166015625000,4.0499758720397950,53.6313095092773440,52,97,83,79,79,15256,2147759716,2147424850,2148014939,2147875666,2147639936,2147056438,2148260397,2147199597,3542,4,13,6454
1379832612,5808,1018.7399902343750000,50.7240982055664060,675.9824829101562000,4.1003680229187010,53.6480598449707000,52,97,87,78,79,15260,2147751634,2147423286,2148014217,2147877129,2147638528,2147054912,2148265389,2147196644,76,4,13,32871
1379836212,5806,1011.0399780273438000,50.2383193969726560,675.7703247070312000,4.1073951721191410,53.7075004577636700,52,97,86,78,79,15262,2147755346,2147427081,2148014957,2147874678,2147641033,2147057078,2148262637,2147201334,314,4,13,32111
1379839812,5807,1008.2399902343750000,50.2554283142089840,675.6569824218750000,4.1111450195312500,53.7034912109375000,53,98,85,79,79,15262,2147754669,2147422317,2148015259,2147874130,2147640265,2147055040,2148262692,2147195693,3471,4,13,33358
1379843412,5809,1015.9099731445312000,50.6686210632324200,676.0048217773438000,4.0996317863464355,53.6511383056640600,52,97,87,77,79,15259,2147753600,2147424128,2148016914,2147877321,2147643629,2147053769,2148263314,2147203108,140,4,13,45257
1379847012,5811,1015.6799926757812000,49.9570312500000000,675.2725219726562000,4.1238708496093750,53.7433204650878900,52,97,83,77,79,15260,2147754642,2147422363,2148013092,2147874624,2147642724,2147051849,2148261686,2147198061,3404,4,13,60797
1379850612,5806,1006.5900268554688000,50.1950683593750000,676.3469238281250000,4.0883049964904785,53.7207183837890600,53,98,85,79,79,15258,2147754651,2147423323,2148016612,2147875044,2147644370,2147057691,2148259181,2147199908,236,4,13,17769
1379854212,5811,1011.1900024414062000,50.7340507507324200,678.0573730468750000,4.0316619873046875,53.6730003356933600,52,99,85,79,79,15263,2147756315,2147424210,2148015195,2147877092,2147644315,2147053842,2148258505,2147198838,3315,4,13,19314
1379857812,5809,1001.5000000000000000,50.6438789367675800,678.1555175781250000,4.0284099578857420,53.6866111755371100,52,96,83,79,79,15262,2147757723,2147424283,2148014006,2147871945,2147642870,2147048722,2148258944,2147200978,694,4,13,8945
1379861412,5808,996.3900146484375000,51.5256195068359400,678.9725952148438000,4.0013408660888670,53.5789909362793000,53,97,83,78,78,15260,2147758857,2147424237,2148015186,2147875145,2147643876,2147056128,2148261266,2147201316,569,4,13,11078
1379865012,5810,1011.0999755859375000,51.3658714294433600,678.0999145507812000,4.0302538871765140,53.5827713012695300,52,97,85,77,79,15261,2147757577,2147424539,2148015195,2147878409,2147642441,2147053476,2148261632,2147197869,3035,4,13,50751
1379868612,5809,1010.5999755859375000,51.2763290405273440,678.4078979492188000,4.0200500488281250,53.6036682128906250,52,99,88,79,79,15257,2147757357,2147425243,2148014016,2147874505,2147643940,2147051657,2148261787,2147197430,326,4,13,41841
1379872212,5807,1013.0399780273438000,51.6768913269043000,678.3767700195312000,4.0210819244384770,53.5466918945312500,52,99,84,78,79,15259,2147754276,2147422848,2148014134,2147874980,2147641947,2147055469,2148263012,2147197302,2988,4,13,21665
1379875812,5811,1008.7500000000000000,51.4104309082031250,678.3651123046875000,4.0214672088623050,53.5823097229003900,53,97,87,78,79,15258,2147756160,2147424438,2148012626,2147872128,2147643090,2147052361,2148267108,2147197513,3152,4,13,36838
1379879412,5809,1017.1199951171875000,51.3580398559570300,677.2244873046875000,4.0592460632324220,53.5776214599609400,52,100,86,79,78,15259,2147755602,2147421522,2148013193,2147874724,2147642450,2147056018,2148261540,2147200978,3439,4,13,38056
1379879755,5810,1016.7399902343750000,51.1106681823730500,677.1862792968750000,4.0605130195617680,53.6063003540039060,52,104,88,79,79,15260,2147755894,2147422253,2148014857,2147874240,2147639588,2147057316,2148267812,2147198153,3467,3,13,46407
